Saint Paul Island, AK

10:15 AM AKDT on July 26, 2017 (GMT -0800)
Saint Paul Island

Weather History for PASN - March, 2013

Change the Weather History Date:

Monday, March 25, 2013

  Actual Average Record
Temperature  
Mean Temperature 6 °F 25 °F  
Max Temperature 8 °F 30 °F 42 °F (1979)
Min Temperature 4 °F 21 °F -13 °F (1994)
Degree Days  
Heating Degree Days 59 40  
Month to date heating degree days 1034 1000  
Since 1 July heating degree days 8493 7917  
Cooling Degree Days 0 0  
Month to date cooling degree days 0 0  
Year to date cooling degree days 0 0  
Moisture  
Dew Point 3 °F    
Average Humidity 83    
Maximum Humidity 92    
Minimum Humidity 60    
Precipitation  
Precipitation T in 0.04 in 0.80 in (1962)
Month to date precipitation 2.76 0.86  
Year to date precipitation 5.61 3.74  
Snow  
Snow T in 0.30 in - ()
Month to date snowfall 23.2 6.5  
Since 1 July snowfall 66.7 51.5  
Snow Depth 31.00 in    
Sea Level Pressure  
Sea Level Pressure 30.15 in    
Wind  
Wind Speed 16 mph (NE)    
Max Wind Speed 25 mph    
Max Gust Speed 30 mph    
Visibility 5 miles    
Events Snow    
T = Trace of Precipitation, MM = Missing Value Source: NWS Daily Summary

Daily Weather History Graph

Daily Weather History Graph

Search for Another Location

Airport or City:

Trip Planner

Search our weather history database for the weather conditions in past years. The results will help you decide how hot, cold, wet, or windy it might be!

Date:

Astronomy

Mar. 25, 2013 Rise Set
Actual Time 9:07 AM AKDT 9:46 PM AKDT
Civil Twilight 8:29 AM AKDT 10:25 PM AKDT
Nautical Twilight 7:42 AM AKDT 11:12 PM AKDT
Astronomical Twilight 6:51 AM AKDT 12:03 AM AKDT
Moon 8:25 PM AKDT (3/25) 8:12 AM AKDT (3/25)
Length of Visible Light 13h 56m
Length of Day
12h 39m
Waxing Gibbous, 97% of the Moon is Illuminated
Mar 25
Waxing Gibbous
Mar 27
Full
Apr 2
Last Quarter
Apr 10
New
Apr 18
First Quarter

Hourly Weather History & Observations

Time (AKDT) Temp. Windchill Dew Point Humidity Pressure Visibility Wind Dir Wind Speed Gust Speed Precip Events Conditions
12:53 AM 17.6 °F 8.2 °F 5.7 °F 60% 30.20 in 10.0 mi NE 6.9 mph - N/A   Clear
1:40 AM 15.8 °F 6.1 °F 5.0 °F 62% 30.18 in 10.0 mi NE 6.9 mph - N/A Snow Light Snow
1:53 AM 16.3 °F 2.1 °F 12.2 °F 84% 30.18 in 10.0 mi NE 13.8 mph - 0.00 in Snow Light Snow
2:53 AM 16.5 °F 2.4 °F 13.3 °F 87% 30.20 in 10.0 mi NE 13.8 mph - 0.00 in   Overcast
3:53 AM 12.9 °F -2.2 °F 7.9 °F 80% 30.19 in 10.0 mi NE 13.8 mph - N/A   Overcast
4:53 AM 11.3 °F -6.0 °F 7.5 °F 85% 30.19 in 10.0 mi NE 17.3 mph - N/A   Overcast
5:53 AM 10.2 °F -7.4 °F 6.6 °F 85% 30.18 in 10.0 mi NE 17.3 mph - N/A   Overcast
6:53 AM 10.0 °F -6.5 °F 6.4 °F 85% 30.17 in 10.0 mi NE 15.0 mph - N/A   Overcast
7:53 AM 9.3 °F -6.8 °F 5.9 °F 86% 30.17 in 10.0 mi NE 13.8 mph 20.7 mph N/A   Overcast
8:53 AM 8.1 °F -8.4 °F 6.1 °F 92% 30.17 in 6.0 mi NE 13.8 mph 23.0 mph N/A Snow Blowing Snow
9:53 AM 8.1 °F -8.4 °F 6.1 °F 92% 30.17 in 6.0 mi NE 13.8 mph 23.0 mph N/A Snow Blowing Snow
10:53 AM - - - N/A% - - North - - N/A   Unknown
11:04 AM 5.0 °F -14.7 °F 1.4 °F 85% 30.16 in 2.5 mi NE 18.4 mph - N/A   Mist
11:15 AM 5.0 °F -15.7 °F 1.4 °F 85% 30.16 in 2.0 mi NE 20.7 mph - 0.00 in Snow Blowing Snow
11:29 AM 5.0 °F -14.7 °F 3.2 °F 92% 30.16 in 1.5 mi NE 18.4 mph - N/A Snow Blowing Snow
11:53 AM 5.0 °F -15.2 °F 1.9 °F 87% 30.17 in 1.5 mi ENE 19.6 mph - N/A Snow Blowing Snow
12:22 PM 3.2 °F -18.1 °F 1.4 °F 92% 30.16 in 2.5 mi ENE 20.7 mph - N/A Snow Blowing Snow
12:31 PM 3.2 °F -18.1 °F 1.4 °F 92% 30.16 in 4.0 mi NE 20.7 mph - N/A Snow Blowing Snow
12:53 PM 5.0 °F -16.7 °F 1.0 °F 84% 30.17 in 1.8 mi ENE 23.0 mph - N/A Snow Blowing Snow
1:03 PM 5.0 °F -15.7 °F 1.4 °F 85% 30.16 in 3.0 mi ENE 20.7 mph - N/A Snow Blowing Snow
1:12 PM 5.0 °F -16.7 °F -0.4 °F 78% 30.15 in 2.0 mi ENE 23.0 mph 28.8 mph N/A Snow Blowing Snow
1:19 PM 5.0 °F -15.2 °F -0.4 °F 78% 30.15 in 3.0 mi ENE 19.6 mph - N/A Snow Blowing Snow
1:33 PM 5.0 °F -15.7 °F -0.4 °F 78% 30.15 in 2.5 mi ENE 20.7 mph - N/A Snow Blowing Snow
1:51 PM 5.0 °F -15.7 °F -0.4 °F 78% 30.15 in 4.0 mi ENE 20.7 mph - N/A Snow Blowing Snow
1:53 PM 5.0 °F -15.7 °F -0.9 °F 76% 30.15 in 4.0 mi ENE 20.7 mph - N/A Snow Blowing Snow
2:07 PM 5.0 °F -15.7 °F -0.4 °F 78% 30.14 in 3.0 mi ENE 20.7 mph 26.5 mph N/A Snow Blowing Snow
2:53 PM 6.1 °F -14.8 °F 1.0 °F 80% 30.14 in 4.0 mi ENE 21.9 mph - N/A Snow Blowing Snow
3:53 PM 6.1 °F -14.3 °F -0.0 °F 76% 30.14 in 7.0 mi ENE 20.7 mph 27.6 mph N/A Snow Blowing Snow
4:29 PM 6.8 °F -13.8 °F 1.4 °F 79% 30.13 in 4.0 mi ENE 21.9 mph 28.8 mph N/A Snow Blowing Snow
4:53 PM 7.0 °F -12.6 °F 3.0 °F 84% 30.14 in 6.0 mi ENE 19.6 mph - N/A Snow Blowing Snow
5:53 PM 7.0 °F -13.6 °F 1.9 °F 80% 30.13 in 3.0 mi ENE 21.9 mph - N/A Snow Blowing Snow
6:53 PM 7.0 °F -13.6 °F 3.0 °F 84% 30.12 in 2.5 mi NE 21.9 mph 27.6 mph 0.00 in Snow Light Snow
7:38 PM 6.8 °F -14.3 °F 3.2 °F 85% 30.11 in 1.5 mi NE 23.0 mph - 0.00 in Snow Blowing Snow
7:51 PM 6.8 °F -13.8 °F 3.2 °F 85% 30.11 in 2.5 mi NE 21.9 mph - 0.00 in Snow Blowing Snow
7:53 PM 7.0 °F -14.0 °F 3.0 °F 84% 30.12 in 2.5 mi NE 23.0 mph - 0.00 in Snow Blowing Snow
8:03 PM 6.8 °F -13.8 °F 3.2 °F 85% 30.11 in 1.8 mi ENE 21.9 mph - N/A Snow Blowing Snow
8:11 PM 6.8 °F -14.7 °F 3.2 °F 85% 30.11 in 2.5 mi ENE 24.2 mph 29.9 mph N/A Snow Blowing Snow
8:45 PM 6.8 °F -12.9 °F 1.4 °F 79% 30.11 in 3.0 mi NE 19.6 mph 27.6 mph N/A Snow Blowing Snow
8:53 PM 6.1 °F -14.3 °F 1.9 °F 83% 30.12 in 3.0 mi NE 20.7 mph - N/A Snow Blowing Snow
9:53 PM 6.1 °F -14.8 °F 1.9 °F 83% 30.13 in 4.0 mi NE 21.9 mph - N/A Snow Blowing Snow
10:35 PM 6.8 °F -12.9 °F 3.2 °F 85% 30.12 in 2.5 mi NE 19.6 mph 28.8 mph 0.00 in Snow Light Snow
10:53 PM 6.1 °F -13.8 °F 3.0 °F 87% 30.13 in 2.5 mi NE 19.6 mph 26.5 mph 0.00 in Snow Light Snow
11:53 PM 6.1 °F -13.8 °F 3.0 °F 87% 30.13 in 1.8 mi NE 19.6 mph 27.6 mph 0.00 in Snow Light Snow